Regional Weather Roundup
Issued by NWS

Home | Current Version | Previous Version | Graphics & Text | Print | Product List | Glossary On
Versions: 1 2 3 4 5 6 7 8 9 10 11 12 13 14 15 16 17 18 19 20 21 22 23 24 25 26 27 28 29 30 31 32 33 34 35 36 37 38 39 40 41 42 43 44 45 46 47 48 49 50
000
ASUS43 KFSD 181510
RWRSD

WEATHER ROUNDUP FOR SOUTH DAKOTA
NATIONAL WEATHER SERVICE SIOUX FALLS SD
1000 AM CDT SAT APR 18 2015

NOTE: "FAIR" INDICATES FEW OR NO CLOUDS BELOW 12,000 FEET WITH NO
SIGNIFICANT WEATHER AND/OR OBSTRUCTIONS TO VISIBILITY.


SDZ001>005-009-010-012>017-181600-
NORTHWEST AND NORTH CENTRAL SOUTH DAKOTA

CITY           SKY/WX    TMP DP  RH WIND       PRES   REMARKS
BUFFALO          N/A     48  40  73 NE3       29.93F
FAITH            N/A     51  38  60 NE8       30.01R
MOBRIDGE       CLOUDY    54  28  36 S3        29.99S
$$

SDZ012>016-024>037-041>051-057-063-072>074-181600-
SOUTHWEST AND SOUTH CENTRAL SOUTH DAKOTA

CITY           SKY/WX    TMP DP  RH WIND       PRES   REMARKS
RAPID CTY ARPT CLOUDY    51  43  74 NE6       29.99S
PIERRE         CLOUDY    49  39  68 S6        30.00R
CUSTER         CLOUDY    41  38  89 NE12      29.98F
ELLSWORTH AFB  CLOUDY    51  46  86 NE2       29.99R
PHILIP         CLOUDY    49  44  83 NE8       29.99S
PINE RIDGE     CLOUDY    47  43  86 NE17G23   29.92F
SPEARFISH      PTSUNNY   52  41  66 SE10      30.00F
WINNER         CLOUDY    50  42  74 E13       29.93S
$$

SDZ004>011-016>023-039-040-181600-
NORTHEAST SOUTH DAKOTA

CITY           SKY/WX    TMP DP  RH WIND       PRES   REMARKS
ABERDEEN       PTSUNNY   61  31  32 E9        30.00F
WATERTOWN      PTSUNNY   60  27  28 E8        30.00F
BROOKINGS      CLOUDY    63  25  23 E13       30.00S
SISSETON         N/A     56  28  34 S13       30.03F
$$

SDZ017-020-022-023-036>040-048>070-181600-
SOUTHEAST SOUTH DAKOTA

CITY           SKY/WX    TMP DP  RH WIND       PRES   REMARKS
SIOUX FALLS    LGT RAIN  57  35  43 E8        29.97F
HURON          CLOUDY    64  26  23 E13G22    29.96F
CHAMBERLAIN    CLOUDY    53  38  57 SW5       29.98S
MITCHELL       CLOUDY    61  31  32 E14       29.96S
YANKTON        CLOUDY    55  46  71 E8        29.93S
$$

ABBREVIATIONS USED IN REMARKS
   TC - TEMPERATURE IN CELSIUS
  WCI - WIND CHILL INDEX
   HX - HEAT INDEX
  VSB - VISIBILITY



USA.gov is the U.S. government's official web portal to all federal, state and local government web resources and services.